Weather History for KUTA - January, 2013

Change the Weather History Date:

Friday, January 11, 2013

  Actual Average (KMEM) Record (KMEM)
Temperature  
Mean Temperature 57 °F 41 °F  
Max Temperature 64 °F 49 °F 77 °F (1890)
Min Temperature 50 °F 32 °F -3 °F (1918)
Degree Days  
Heating Degree Days 8 24  
Month to date heating degree days 264  
Since 1 July heating degree days 1428  
Cooling Degree Days 0 0  
Month to date cooling degree days 0  
Year to date cooling degree days 0  
Growing Degree Days 7 (Base 50)    
Moisture  
Dew Point 53 °F    
Average Humidity 82    
Maximum Humidity 100    
Minimum Humidity 64    
Precipitation  
Precipitation 0.00 in 0.12 in 1.97 in (1898)
Month to date precipitation 1.48  
Year to date precipitation 1.48  
Snow  
Snow 0.00 in 0.00 in 3.00 in (1918)
Month to date snowfall 0.6  
Since 1 July snowfall 0.8  
Snow Depth -    
Sea Level Pressure  
Sea Level Pressure 30.00 in    
Wind  
Wind Speed 10 mph (South)    
Max Wind Speed 14 mph    
Max Gust Speed 17 mph    
Visibility 10 miles    
Events      
T = Trace of Precipitation, MM = Missing Value Source: NWS Daily Summary

Daily Weather History Graph

Daily Weather History Graph

Search for Another Location

Airport or City:

Trip Planner

Search our weather history database for the weather conditions in past years. The results will help you decide how hot, cold, wet, or windy it might be!

Date:

Astronomy

Jan. 11, 2013 Rise Set
Actual Time 7:08 AM CST 5:10 PM CST
Civil Twilight 6:41 AM CST 5:37 PM CST
Nautical Twilight 6:10 AM CST 6:08 PM CST
Astronomical Twilight 5:39 AM CST 6:39 PM CST
Moon 6:43 AM CST (1/11) 5:25 PM CST (1/11)
Length of Visible Light 10h 56m
Length of Day
10h 01m
Waning Crescent, 0% of the Moon is Illuminated
Jan 11
Waning Crescent
Jan 11
New
Jan 18
First Quarter
Jan 26
Full
Feb 3
Last Quarter

Hourly Weather History & Observations

Time (CST) Temp. Dew Point Humidity Pressure Visibility Wind Dir Wind Speed Gust Speed Precip Events Conditions
12:15 AM 60.8 °F 57.2 °F 88% 29.98 in 10.0 mi SSW 12.7 mph - N/A   Overcast
12:35 AM 60.8 °F 55.4 °F 82% 29.97 in 10.0 mi SSW 12.7 mph - N/A   Mostly Cloudy
12:55 AM 60.8 °F 55.4 °F 82% 29.98 in 10.0 mi SSW 12.7 mph - N/A   Mostly Cloudy
1:15 AM 59.0 °F 55.4 °F 88% 29.98 in 10.0 mi SSW 11.5 mph - N/A   Scattered Clouds
1:35 AM 59.0 °F 55.4 °F 88% 29.98 in 10.0 mi SSW 11.5 mph - N/A   Clear
1:55 AM 59.0 °F 55.4 °F 88% 29.99 in 10.0 mi SSW 11.5 mph - N/A   Clear
2:15 AM 59.0 °F 55.4 °F 88% 30.00 in 10.0 mi SSW 13.8 mph - N/A   Clear
2:35 AM 57.2 °F 53.6 °F 88% 30.00 in 10.0 mi SSW 12.7 mph - N/A   Clear
2:55 AM 57.2 °F 53.6 °F 88% 30.00 in 10.0 mi SSW 10.4 mph - N/A   Clear
3:15 AM 57.2 °F 53.6 °F 88% 30.01 in 10.0 mi SW 9.2 mph - N/A   Scattered Clouds
3:35 AM 57.2 °F 55.4 °F 94% 30.01 in 10.0 mi SW 9.2 mph - N/A   Mostly Cloudy
3:55 AM 55.4 °F 53.6 °F 94% 30.01 in 10.0 mi SSW 8.1 mph - N/A   Mostly Cloudy
4:15 AM 55.4 °F 53.6 °F 94% 30.00 in 10.0 mi SW 8.1 mph - N/A   Scattered Clouds
4:35 AM 55.4 °F 53.6 °F 94% 30.01 in 10.0 mi SW 5.8 mph - N/A   Clear
4:55 AM 53.6 °F 51.8 °F 94% 30.00 in 10.0 mi South 6.9 mph - N/A   Clear
5:15 AM 53.6 °F 51.8 °F 94% 30.01 in 10.0 mi South 6.9 mph - N/A   Clear
6:15 AM 53.6 °F 51.8 °F 94% 30.02 in 10.0 mi South 5.8 mph - N/A   Clear
6:35 AM 53.6 °F 51.8 °F 94% 30.03 in 10.0 mi South 3.5 mph - N/A   Clear
6:55 AM 51.8 °F 50.0 °F 94% 30.03 in 10.0 mi South 6.9 mph - N/A   Clear
7:15 AM 51.8 °F 50.0 °F 94% 30.03 in 10.0 mi South 5.8 mph - N/A   Clear
7:35 AM 50.0 °F 50.0 °F 100% 30.03 in 7.0 mi South 5.8 mph - N/A   Clear
7:55 AM 51.8 °F 51.8 °F 100% 30.04 in 10.0 mi South 4.6 mph - N/A   Clear
8:15 AM 53.6 °F 51.8 °F 94% 30.06 in 10.0 mi South 3.5 mph - N/A   Clear
8:35 AM 55.4 °F 53.6 °F 94% 30.06 in 10.0 mi SSW 10.4 mph - N/A   Clear
8:55 AM 55.4 °F 51.8 °F 88% 30.06 in 10.0 mi SSW 9.2 mph - N/A   Clear
9:15 AM 57.2 °F 51.8 °F 82% 30.06 in 10.0 mi SSW 9.2 mph - N/A   Clear
9:35 AM 59.0 °F 51.8 °F 77% 30.06 in 10.0 mi SSW 8.1 mph - N/A   Clear
9:55 AM 59.0 °F 51.8 °F 77% 30.06 in 10.0 mi South 9.2 mph - N/A   Clear
10:15 AM 59.0 °F 51.8 °F 77% 30.07 in 10.0 mi South 12.7 mph - N/A   Clear
10:35 AM 59.0 °F 50.0 °F 72% 30.06 in 10.0 mi SSW 11.5 mph - N/A   Clear
10:55 AM 60.8 °F 51.8 °F 72% 30.06 in 10.0 mi South 9.2 mph - N/A   Clear
11:35 AM 62.6 °F 51.8 °F 68% 30.05 in 10.0 mi South 10.4 mph - N/A   Clear
11:55 AM 62.6 °F 51.8 °F 68% 30.03 in 10.0 mi SSW 11.5 mph - N/A   Clear
12:15 PM 62.6 °F 51.8 °F 68% 30.03 in 10.0 mi South 11.5 mph - N/A   Clear
12:35 PM 62.6 °F 51.8 °F 68% 30.01 in 10.0 mi South 12.7 mph 17.3 mph N/A   Clear
12:55 PM 64.4 °F 51.8 °F 64% 30.01 in 10.0 mi SSW 12.7 mph - N/A   Clear
1:15 PM 64.4 °F 51.8 °F 64% 30.01 in 10.0 mi South 11.5 mph - N/A   Clear
1:35 PM 64.4 °F 51.8 °F 64% 30.00 in 10.0 mi South 10.4 mph - N/A   Clear
1:55 PM 64.4 °F 51.8 °F 64% 30.00 in 10.0 mi South 9.2 mph - N/A   Clear
2:15 PM 64.4 °F 51.8 °F 64% 29.98 in 10.0 mi South 11.5 mph 17.3 mph N/A   Clear
2:35 PM 64.4 °F 51.8 °F 64% 29.98 in 10.0 mi South 11.5 mph - N/A   Clear
2:55 PM 64.4 °F 51.8 °F 64% 29.98 in 10.0 mi South 11.5 mph - N/A   Clear
3:15 PM 64.4 °F 51.8 °F 64% 29.98 in 10.0 mi South 9.2 mph - N/A   Clear
3:35 PM 64.4 °F 51.8 °F 64% 29.98 in 10.0 mi South 11.5 mph - N/A   Clear
3:55 PM 64.4 °F 51.8 °F 64% 29.97 in 10.0 mi South 12.7 mph - N/A   Clear
4:15 PM 62.6 °F 53.6 °F 72% 29.97 in 10.0 mi South 10.4 mph - N/A   Clear
4:35 PM 62.6 °F 53.6 °F 72% 29.97 in 10.0 mi South 8.1 mph - N/A   Clear
4:55 PM 60.8 °F 53.6 °F 77% 29.97 in 10.0 mi South 6.9 mph - N/A   Clear
5:15 PM 60.8 °F 53.6 °F 77% 29.97 in 10.0 mi South 5.8 mph - N/A   Clear
5:35 PM 59.0 °F 51.8 °F 77% 29.97 in 10.0 mi South 8.1 mph - N/A   Clear
5:55 PM 57.2 °F 51.8 °F 82% 29.96 in 10.0 mi SSE 9.2 mph - N/A   Clear
6:15 PM 57.2 °F 51.8 °F 82% 29.96 in 10.0 mi South 8.1 mph - N/A   Clear
6:35 PM 55.4 °F 51.8 °F 88% 29.96 in 10.0 mi SSE 6.9 mph - N/A   Clear
6:55 PM 57.2 °F 51.8 °F 82% 29.95 in 10.0 mi SSE 9.2 mph - N/A   Clear
7:15 PM 57.2 °F 51.8 °F 82% 29.95 in 10.0 mi SSE 8.1 mph - N/A   Clear
7:35 PM 57.2 °F 51.8 °F 82% 29.95 in 10.0 mi SSE 6.9 mph - N/A   Clear
7:55 PM 57.2 °F 51.8 °F 82% 29.95 in 10.0 mi SSE 9.2 mph - N/A   Clear
8:15 PM 57.2 °F 51.8 °F 82% 29.96 in 10.0 mi SSE 6.9 mph - N/A   Clear
8:35 PM 59.0 °F 53.6 °F 82% 29.96 in 10.0 mi SSE 9.2 mph - N/A   Clear
8:55 PM 59.0 °F 53.6 °F 82% 29.96 in 10.0 mi SSE 9.2 mph - N/A   Clear
9:15 PM 59.0 °F 53.6 °F 82% 29.96 in 10.0 mi SSE 9.2 mph - N/A   Clear
9:35 PM 59.0 °F 55.4 °F 88% 29.96 in 10.0 mi SSE 10.4 mph - N/A   Scattered Clouds
9:55 PM 60.8 °F 55.4 °F 82% 29.96 in 10.0 mi SSE 9.2 mph - N/A   Mostly Cloudy
10:15 PM 60.8 °F 57.2 °F 88% 29.96 in 10.0 mi SSE 8.1 mph - N/A   Overcast
10:35 PM 60.8 °F 59.0 °F 94% 29.96 in 10.0 mi SSE 10.4 mph - N/A   Overcast
10:55 PM 62.6 °F 59.0 °F 88% 29.95 in 10.0 mi SSE 9.2 mph - N/A   Overcast
11:15 PM 62.6 °F 60.8 °F 94% 29.95 in 10.0 mi South 9.2 mph - N/A   Overcast
11:35 PM 62.6 °F 60.8 °F 94% 29.96 in 10.0 mi South 8.1 mph - N/A   Overcast
11:55 PM 62.6 °F 60.8 °F 94% 29.97 in 10.0 mi South 8.1 mph - N/A   Overcast